Waarnemingen

Advertentie
Mijn weer
Wattisham, Groot Brittannië (3590): temperatuur & dauwpunt: 11.01.2021 14:00:00 - 17.01.2021 14:00:00 (GMT)Wattisham, Groot Brittannië (3590): temperatuur -20cm & temperatuur -100cm: 11.01.2021 14:00:00 - 17.01.2021 14:00:00 (GMT)Wattisham, Groot Brittannië (3590): windsnelheid & windstoten: 11.01.2021 14:00:00 - 17.01.2021 14:00:00 (GMT)Wattisham, Groot Brittannië (3590): windrichting: 11.01.2021 14:00:00 - 17.01.2021 14:00:00 (GMT)Wattisham, Groot Brittannië (3590): luchtdruk: 11.01.2021 14:00:00 - 17.01.2021 14:00:00 (GMT)Wattisham, Groot Brittannië (3590): zicht: 11.01.2021 14:00:00 - 17.01.2021 14:00:00 (GMT)Wattisham, Groot Brittannië (3590): Zonneschijnduur: 11.01.2021 14:00:00 - 17.01.2021 14:00:00 (GMT)Wattisham, Groot Brittannië (3590): neerslag: 11.01.2021 14:00:00 - 17.01.2021 14:00:00 (GMT)
Datum & Tijd tt [°C] td [°C] tt -20cm [°C] tt -100cm [°C] ff [km/u] ff [kn] fx [km/u] fx [kn] dd ppp [hPa] vv [km] sd [min] rr [mm]
17.01.2021 14:00:00 5,8 3,1 - - 22 12 - - NW 1023,2 30 30 0,0
17.01.2021 13:00:00 6,0 2,9 - - 24 13 - - NW 1022,8 40 60 0,0
17.01.2021 12:00:00 5,7 3,0 - - 26 14 - - NW 1022,8 10 60 0,0
17.01.2021 11:00:00 4,8 2,6 - - 24 13 - - NW 1022,6 30 60 0,0
17.01.2021 10:00:00 3,9 2,2 - - 21 11 - - WNW 1021,8 10 60 0,0
17.01.2021 09:00:00 3,2 1,5 3,9 6,0 21 11 - - WNW 1020,8 35 30 0,0
17.01.2021 08:00:00 3,4 1,7 - - 21 11 - - NW 1019,9 40 0 0,0
17.01.2021 07:00:00 3,9 1,9 - - 22 12 - - WNW 1019,3 35 0 0,0
17.01.2021 06:00:00 4,2 2,2 - - 22 12 - - WNW 1018,3 10 0 0,0
17.01.2021 05:00:00 4,1 2,1 - - 21 11 - - WNW 1017,8 20 0 0,0
17.01.2021 04:00:00 4,0 2,1 - - 16 9 - - W 1017,3 17 0 0,0
17.01.2021 03:00:00 3,9 1,9 - - 18 10 - - WNW 1017,2 19 0 0,0
17.01.2021 02:00:00 4,2 2,1 - - 21 11 - - WNW 1017,0 18 0 0,0
17.01.2021 01:00:00 3,9 2,8 - - 15 8 - - W 1016,8 14 0 0,0
17.01.2021 00:00:00 4,3 3,0 - - 18 10 - - W 1016,9 15 - 0,0
16.01.2021 23:00:00 4,2 3,1 - - 11 6 - - WNW 1016,3 14 0 0,0
16.01.2021 22:00:00 4,2 3,4 - - 13 7 - - W 1016,1 15 0 0,0
16.01.2021 21:00:00 4,5 4,2 - - 16 9 - - W 1016,0 20 0 0,0
16.01.2021 20:00:00 4,1 4,1 - - 18 10 - - W 1015,8 21 0 0,0
16.01.2021 19:00:00 3,3 3,3 - - 13 7 - - W 1015,9 13 0 0,0
16.01.2021 18:00:00 2,3 2,3 - - 15 8 - - W 1015,3 2,3 0 0,0
16.01.2021 17:00:00 2,1 2,1 - - 11 6 - - WZW 1015,1 0,3 0 0,0
16.01.2021 16:00:00 2,1 2,1 - - 11 6 - - WZW 1015,0 0,2 0 0,0
16.01.2021 15:00:00 2,3 2,3 - - 11 6 - - ZW 1014,8 0,3 0 0,2
16.01.2021 14:00:00 2,5 2,5 - - 13 7 - - Z 1014,9 1,9 0 0,4
16.01.2021 13:00:00 1,9 1,9 - - 16 9 - - Z 1015,7 2,4 0 3,4
16.01.2021 12:00:00 1,1 1,1 - - 18 10 - - Z 1017,1 2,4 0 3,8
16.01.2021 11:00:00 0,4 0,4 - - 24 13 - - Z 1017,9 4,6 0 0,6
16.01.2021 10:00:00 0,2 0,2 - - 21 11 - - Z 1019,2 1,8 0 0,0
16.01.2021 09:00:00 -0,1 -0,1 4,0 6,0 26 14 - - Z 1020,2 1,9 0 0,0
16.01.2021 08:00:00 -0,2 -0,3 - - 26 14 - - Z 1021,5 2,7 0 0,0
16.01.2021 07:00:00 -0,2 -0,5 - - 22 12 - - Z 1022,3 1,8 0 0,0
16.01.2021 06:00:00 1,4 -1,8 - - 26 14 - - Z 1023,8 10 0 0,0
16.01.2021 05:00:00 1,4 -1,3 - - 24 13 - - ZZW 1025,0 35 0 0,0
16.01.2021 04:00:00 1,4 -1,0 - - 21 11 - - ZZW 1025,4 30 0 0,0
16.01.2021 03:00:00 0,9 -0,7 - - 15 8 - - Z 1026,4 16 0 0,0
16.01.2021 02:00:00 0,6 -0,5 - - 13 7 - - Z 1027,7 11 0 0,0
16.01.2021 01:00:00 0,2 -0,3 - - 11 6 - - Z 1028,4 5 0 0,0
16.01.2021 00:00:00 0,5 -1,3 - - 11 6 - - Z 1029,2 14 - 0,0
15.01.2021 23:00:00 1,2 -2,5 - - 9 5 - - Z 1029,7 35 0 0,0
15.01.2021 22:00:00 0,7 -3,4 - - 8 4 - - ZZW 1030,3 50 0 0,0
15.01.2021 21:00:00 0,5 -3,4 - - 5 3 - - ZZW 1030,8 50 0 0,0
15.01.2021 20:00:00 1,1 -1,9 - - 8 4 - - ZZW 1030,8 45 0 0,0
15.01.2021 19:00:00 0,4 -1,8 - - 5 3 - - WZW 1031,0 20 0 0,0
15.01.2021 18:00:00 1,2 -1,5 - - 4 2 - - W 1030,7 26 0 0,0
15.01.2021 17:00:00 2,0 -0,3 - - 5 3 - - WNW 1030,7 23 0 0,0
15.01.2021 16:00:00 2,6 0,2 - - 4 2 - - NNW 1030,9 10 0 0,0
15.01.2021 15:00:00 3,2 0,7 - - 9 5 - - N 1030,7 10 0 0,0
15.01.2021 14:00:00 3,1 0,9 - - 9 5 - - NW 1030,7 10 0 0,0
15.01.2021 13:00:00 2,7 1,2 - - 11 6 - - NW 1030,8 20 0 0,0
15.01.2021 12:00:00 2,3 1,3 - - 11 6 - - N 1031,1 20 0 0,0
15.01.2021 11:00:00 1,9 1,1 - - 9 5 - - NNW 1031,4 10 0 0,0
15.01.2021 10:00:00 1,5 0,6 - - 8 4 - - NNW 1031,0 10 0 0,0
15.01.2021 09:00:00 1,2 0,5 4,2 6,0 5 3 - - N 1030,4 20 0 0,0
15.01.2021 08:00:00 0,9 0,2 - - 5 3 - - N 1029,7 10 0 0,0
15.01.2021 07:00:00 0,8 0,1 - - 5 3 - - N 1029,0 18 0 0,0
15.01.2021 06:00:00 0,7 0,0 - - 8 4 - - N 1028,4 14 0 0,0
15.01.2021 05:00:00 1,0 0,0 - - 9 5 - - N 1027,7 15 0 0,0
15.01.2021 04:00:00 2,0 -0,2 - - 11 6 - - ONO 1027,0 35 0 0,0
15.01.2021 03:00:00 0,9 0,0 - - 9 5 - - NNO 1026,5 17 0 0,0
15.01.2021 02:00:00 0,8 -0,1 - - 9 5 - - NNO 1025,8 10 0 0,0
15.01.2021 01:00:00 0,6 -0,4 - - 13 7 - - NNO 1025,0 21 0 0,0
15.01.2021 00:00:00 0,4 -0,5 - - 13 7 - - NNO 1024,7 18 - 0,0
14.01.2021 23:00:00 0,5 -0,6 - - 11 6 - - NNO 1024,2 17 0 0,0
14.01.2021 22:00:00 1,4 0,1 - - 13 7 - - NNO 1023,5 10 0 0,0
14.01.2021 21:00:00 1,5 0,5 - - 16 9 - - NNO 1022,7 15 0 0,0
14.01.2021 20:00:00 1,3 0,6 - - 15 8 - - NNO 1021,8 10 0 0,0
14.01.2021 19:00:00 1,3 0,9 - - 13 7 - - N 1021,0 10 0 0,2
14.01.2021 18:00:00 1,6 1,3 - - 15 8 - - NNO 1020,1 5 0 0,0
14.01.2021 17:00:00 1,6 1,3 - - 15 8 - - ONO 1018,9 10 0 0,0
14.01.2021 16:00:00 1,5 1,1 - - 16 9 - - O 1018,1 8 0 0,6
14.01.2021 15:00:00 1,5 0,9 - - 22 12 - - O 1017,1 7 0 0,6
14.01.2021 14:00:00 2,1 1,5 - - 24 13 - - O 1016,0 6 0 0,6
14.01.2021 13:00:00 2,0 1,6 - - 26 14 - - OZO 1015,5 6 0 1,0
14.01.2021 12:00:00 2,3 1,8 - - 24 13 - - OZO 1015,7 5 0 0,8
14.01.2021 11:00:00 2,3 1,9 - - 26 14 46 25 OZO 1015,9 4,0 0 0,6
14.01.2021 10:00:00 2,3 1,8 - - 28 15 48 26 OZO 1016,0 4,5 0 0,6
14.01.2021 09:00:00 2,7 2,2 4,4 6,2 29 16 - - OZO 1015,9 3,0 0 0,4
14.01.2021 08:00:00 2,9 2,8 - - 24 13 - - OZO 1015,9 6 0 1,2
14.01.2021 07:00:00 2,8 2,7 - - 18 10 - - OZO 1016,0 4,7 0 1,4
14.01.2021 06:00:00 2,5 2,5 - - 16 9 - - OZO 1016,3 2,7 0 1,6
14.01.2021 05:00:00 2,2 2,2 - - 16 9 - - O 1016,6 2,3 0 1,8
14.01.2021 04:00:00 1,9 1,8 - - 13 7 - - OZO 1017,0 3,0 0 1,2
14.01.2021 03:00:00 1,8 1,7 - - 8 4 - - OZO 1017,6 2,3 0 1,2
14.01.2021 02:00:00 1,8 1,7 - - 9 5 - - ZO 1017,5 2,3 0 1,2
14.01.2021 01:00:00 1,6 1,5 - - 8 4 - - ZO 1017,9 1,9 0 0,6
14.01.2021 00:00:00 1,6 1,4 - - 5 3 - - OZO 1018,2 2,6 - 1,0
13.01.2021 23:00:00 1,5 1,4 - - 5 3 - - NO 1018,5 2,5 0 0,4
13.01.2021 22:00:00 1,4 1,2 - - 2 1 - - NNW 1018,2 1,1 0 0,4
13.01.2021 21:00:00 1,4 1,2 - - 4 2 - - WNW 1018,0 2,3 0 0,4
13.01.2021 20:00:00 1,5 1,1 - - 8 4 - - N 1017,8 2,2 0 0,2
13.01.2021 19:00:00 1,8 1,3 - - 8 4 - - NNW 1017,6 3,2 0 0,4
13.01.2021 18:00:00 2,1 1,3 - - 9 5 - - N 1017,3 3,9 0 0,2
13.01.2021 17:00:00 2,5 2,1 - - 8 4 - - NNW 1016,9 4,0 0 0,0
13.01.2021 16:00:00 2,8 2,2 - - 11 6 - - NNW 1017,1 3,5 0 0,2
13.01.2021 15:00:00 3,2 2,4 - - 11 6 - - NNW 1016,8 5 0 0,4
13.01.2021 14:00:00 3,5 2,6 - - 11 6 - - NNW 1016,6 4,0 0 0,4
13.01.2021 13:00:00 3,3 2,7 - - 8 4 - - NW 1017,0 4,5 0 0,0
13.01.2021 12:00:00 3,0 2,3 - - 11 6 - - WNW 1017,3 6 0 0,0
13.01.2021 11:00:00 2,0 1,5 - - 11 6 - - W 1017,8 5 0 0,0
13.01.2021 10:00:00 1,0 0,4 - - 11 6 - - WZW 1017,7 8 0 0,0
13.01.2021 09:00:00 0,5 -0,4 4,5 6,2 9 5 - - ZW 1018,2 9 0 0,0
13.01.2021 08:00:00 0,3 -0,4 - - 11 6 - - WZW 1018,1 10 0 0,0
13.01.2021 07:00:00 -0,7 -1,2 - - 8 4 - - WZW 1018,5 8 0 0,0
13.01.2021 06:00:00 -0,5 -1,0 - - 11 6 - - WZW 1018,6 6 0 0,0
13.01.2021 05:00:00 -0,7 -1,2 - - 11 6 - - W 1019,2 6 0 0,0
13.01.2021 04:00:00 -0,9 -1,6 - - 11 6 - - W 1019,5 8 0 0,0
13.01.2021 03:00:00 -0,9 -1,6 - - 11 6 - - W 1019,8 13 0 0,0
13.01.2021 02:00:00 -1,5 -2,2 - - 13 7 - - WNW 1019,7 15 0 0,0
13.01.2021 01:00:00 -2,5 -3,2 - - 11 6 - - W 1019,9 11 0 0,0
13.01.2021 00:00:00 -2,2 -3,3 - - 11 6 - - W 1020,4 10 - 0,0
12.01.2021 23:00:00 0,3 -0,8 - - 9 5 - - WNW 1020,0 10 0 0,0
12.01.2021 22:00:00 -0,2 -1,1 - - 9 5 - - WNW 1019,6 10 0 0,0
12.01.2021 21:00:00 0,0 -1,2 - - 11 6 - - WNW 1019,3 20 0 0,0
12.01.2021 20:00:00 0,7 -0,6 - - 11 6 - - NW 1018,9 10 0 0,0
12.01.2021 19:00:00 1,3 -0,3 - - 15 8 - - NW 1018,2 10 0 0,0
12.01.2021 18:00:00 1,5 -0,2 - - 15 8 - - NW 1017,5 10 0 0,0
12.01.2021 17:00:00 1,4 -0,7 - - 11 6 - - NW 1016,8 10 0 0,0
12.01.2021 16:00:00 2,3 -0,6 - - 16 9 - - NW 1016,0 10 36 0,0
12.01.2021 15:00:00 4,2 -0,4 - - 18 10 - - NNW 1015,1 10 60 0,0
12.01.2021 14:00:00 4,3 0,5 - - 21 11 - - NNW 1014,3 10 54 0,0
12.01.2021 13:00:00 4,6 2,4 - - 15 8 - - NW 1013,7 10 12 0,0
12.01.2021 12:00:00 4,8 3,3 - - 15 8 - - NNW 1013,3 25 0 0,0
12.01.2021 11:00:00 4,7 3,6 - - 21 11 - - NNW 1012,9 10 0 0,0
12.01.2021 10:00:00 4,8 4,3 - - 15 8 - - N 1011,9 10 0 0,2
12.01.2021 09:00:00 4,7 4,1 4,7 6,2 16 9 - - N 1010,6 9 0 0,0
12.01.2021 08:00:00 4,7 4,2 - - 16 9 - - N 1009,4 10 0 0,0
12.01.2021 07:00:00 6,5 5,5 - - 22 12 - - N 1007,8 10 0 0,4
12.01.2021 06:00:00 7,1 6,2 - - 24 13 - - NW 1006,8 35 0 0,0
12.01.2021 05:00:00 7,3 6,5 - - 26 14 52 28 NW 1006,4 20 0 0,8
12.01.2021 04:00:00 8,6 7,5 - - 35 19 52 28 W 1005,8 10 0 0,4
12.01.2021 03:00:00 8,4 7,4 - - 35 19 50 27 W 1006,2 15 0 1,0
12.01.2021 02:00:00 8,0 7,3 - - 28 15 - - WZW 1006,5 40 0 0,0
12.01.2021 01:00:00 7,6 7,1 - - 28 15 46 25 WZW 1007,4 13 0 0,4
12.01.2021 00:00:00 7,5 6,8 - - 29 16 46 25 W 1008,3 11 - 0,2
11.01.2021 23:00:00 7,4 6,5 - - 31 17 46 25 W 1008,8 27 0 0,0
11.01.2021 22:00:00 7,2 6,2 - - 31 17 52 28 W 1009,5 45 0 0,2
11.01.2021 21:00:00 7,0 6,0 - - 28 15 - - WZW 1010,2 12 0 0,2
11.01.2021 20:00:00 6,8 5,2 - - 24 13 - - WZW 1010,9 10 0 0,0
11.01.2021 19:00:00 6,8 4,6 - - 24 13 - - WZW 1011,6 45 0 0,0
11.01.2021 18:00:00 6,4 4,1 - - 24 13 - - WZW 1012,1 10 0 0,0
11.01.2021 17:00:00 6,3 3,9 - - 22 12 - - WZW 1012,7 10 0 0,0
11.01.2021 16:00:00 6,2 3,7 - - 24 13 - - WZW 1013,2 50 0 0,0
11.01.2021 15:00:00 6,1 3,4 - - 28 15 48 26 WZW 1013,8 10 6 -
11.01.2021 14:00:00 6,4 3,4 - - 29 16 50 27 W 1014,2 10 0 0,0

tt = temperatuur
td = dauwpunt
tt -20cm = temperatuur -20cm
tt -100cm = temperatuur -100cm
ff = windsnelheid
fx = windstoten
dd = windrichting
ppp = luchtdruk
vv = zicht
sd = Zonneschijnduur
rr = neerslag

Weerstations in de omgeving